FW4518 Weather Reports


Display with metric or nautical units.
time (UTC)temp
F
wind
direction
speed
MPH
gust
MPH
rain 1hr
in
rain 24hr
in
rain mn
in
humidity
%
barometer
mb
20260510030625 71 4 5.0 8.0 0.00 0.00 0.00 35 1016.2
20260510025625 72 17 5.0 8.0 0.00 0.00 0.00 34 1016.2
20260510024625 74 303 6.0 9.0 0.00 0.00 0.00 34 1016.2
20260510023625 76 338 3.0 8.0 0.00 0.00 0.00 32 1016.1
20260510022625 76 16 4.0 8.0 0.00 0.00 0.00 32 1016.2
20260510021625 77 11 4.0 7.0 0.00 0.00 0.00 32 1016.2
20260510020625 77 335 5.0 9.0 0.00 0.00 0.00 32 1016.1
20260510015626 78 19 5.0 11.0 0.00 0.00 0.00 33 1016.2
20260510014645 77 4 6.0 10.0 0.00 0.00 0.00 33 1016.3
20260510013625 78 5 7.0 12.0 0.00 0.00 0.00 32 1016.4
20260510012625 78 13 7.0 12.0 0.00 0.00 0.00 32 1016.4
20260510011626 79 17 7.0 13.0 0.00 0.00 0.00 32 1016.4
20260510010625 79 22 7.0 12.0 0.00 0.00 0.00 31 1016.3
20260510005625 79 18 6.0 10.0 0.00 0.00 0.00 31 1016.3
20260510004625 78 20 6.0 10.0 0.00 0.00 0.00 31 1016.4
20260510003625 79 22 8.0 12.0 0.00 0.00 0.00 30 1016.4
20260510002625 79 360 6.0 9.0 0.00 0.00 0.00 30 1016.5
20260510001625 80 120 6.0 11.0 0.00 0.00 0.00 29 1016.6
20260510000650 80 21 7.0 10.0 0.00 0.00 0.00 29 1016.8
20260509235626 82 349 5.0 9.0 0.00 0.00 0.00 27 1016.8
20260509234625 81 12 4.0 9.0 0.00 0.00 0.00 27 1016.9
20260509233626 83 58 3.0 7.0 0.00 0.00 0.00 26 1017.0
20260509232647 79 13 2.0 7.0 0.00 0.00 0.00 24 1017.3
20260509231628 80 359 0.0 2.0 0.00 0.00 0.00 24 1017.3
20260509230625 80 10 1.0 7.0 0.00 0.00 0.00 23 1017.4
20260509225645 81 178 2.0 6.0 0.00 0.00 0.00 26 1017.5
20260509224625 80 164 3.0 6.0 0.00 0.00 0.00 27 1017.7
20260509223625 80 180 3.0 7.0 0.00 0.00 0.00 26 1017.8
20260509222646 79 142 2.0 5.0 0.00 0.00 0.00 25 1018.0
20260509221625 79 196 3.0 7.0 0.00 0.00 0.00 26 1018.1
20260509220626 77 178 2.0 6.0 0.00 0.00 0.00 26 1018.3
20260509215628 80 194 2.0 6.0 0.00 0.00 0.00 27 1018.4
20260509214646 78 193 4.0 7.0 0.00 0.00 0.00 27 1018.7
20260509213625 78 261 3.0 8.0 0.00 0.00 0.00 25 1018.7
20260509212626 79 140 1.0 6.0 0.00 0.00 0.00 28 1018.8
20260509211625 78 211 2.0 6.0 0.00 0.00 0.00 27 1019.0
20260509210625 78 6 1.0 4.0 0.00 0.00 0.00 27 1019.1
20260509205625 77 178 4.0 7.0 0.00 0.00 0.00 27 1019.3
20260509204625 78 140 2.0 7.0 0.00 0.00 0.00 27 1019.4
20260509203625 76 287 1.0 4.0 0.00 0.00 0.00 29 1019.5
20260509202645 77 82 2.0 7.0 0.00 0.00 0.00 29 1019.6
20260509201625 77 154 3.0 9.0 0.00 0.00 0.00 31 1019.7
20260509200625 76 196 1.0 5.0 0.00 0.00 0.00 31 1019.8
20260509195626 74 169 5.0 8.0 0.00 0.00 0.00 34 1020.0
20260509194626 74 180 2.0 5.0 0.00 0.00 0.00 33 1020.1
20260509193625 73 215 2.0 4.0 0.00 0.00 0.00 30 1020.3
20260509192626 73 181 2.0 5.0 0.00 0.00 0.00 29 1020.5
20260509191628 74 169 3.0 7.0 0.00 0.00 0.00 32 1020.6
20260509190627 74 114 3.0 8.0 0.00 0.00 0.00 33 1020.8
20260509185646 73 197 3.0 8.0 0.00 0.00 0.00 32 1020.9
20260509184646 72 0.0 2.0 0.00 0.00 0.00 33 1021.1
20260509183625 70 196 3.0 8.0 0.00 0.00 0.00 35 1021.3
20260509182646 70 47 1.0 5.0 0.00 0.00 0.00 40 1021.4
20260509181626 68 108 6.0 10.0 0.00 0.00 0.00 41 1021.6
20260509180626 67 159 4.0 8.0 0.00 0.00 0.00 44 1021.7
20260509175646 66 183 3.0 6.0 0.00 0.00 0.00 47 1021.7
20260509174628 66 118 4.0 8.0 0.00 0.00 0.00 49 1021.8
20260509173626 64 145 4.0 9.0 0.00 0.00 0.00 51 1021.9
20260509172628 64 109 5.0 8.0 0.00 0.00 0.00 56 1021.9
20260509171626 62 72 6.0 9.0 0.00 0.00 0.00 57 1022.0
20260509170627 62 107 6.0 8.0 0.00 0.00 0.00 58 1022.1
20260509165626 61 168 5.0 9.0 0.00 0.00 0.00 60 1022.3
20260509164626 60 67 6.0 8.0 0.00 0.00 0.00 61 1022.4
20260509163646 59 74 5.0 8.0 0.00 0.00 0.00 61 1022.4
20260509162627 57 77 4.0 8.0 0.00 0.00 0.00 64 1022.6
20260509161627 57 127 5.0 9.0 0.00 0.00 0.00 65 1022.7
20260509160626 56 143 3.0 6.0 0.00 0.00 0.00 66 1022.6
20260509155626 55 168 4.0 9.0 0.00 0.00 0.00 67 1022.6
20260509154626 55 136 4.0 9.0 0.00 0.00 0.00 68 1022.7
20260509153626 54 64 5.0 9.0 0.00 0.00 0.00 68 1022.8
20260509152626 54 68 5.0 8.0 0.00 0.00 0.00 70 1023.0
20260509151626 53 106 5.0 10.0 0.00 0.00 0.00 73 1023.0
20260509150626 51 74 6.0 9.0 0.00 0.00 0.00 76 1023.0
20260509145626 50 48 6.0 9.0 0.00 0.00 0.00 77 1023.0
20260509144626 49 73 5.0 7.0 0.00 0.00 0.00 79 1023.0
20260509143626 48 94 6.0 8.0 0.00 0.00 0.00 83 1023.0
20260509142626 46 104 4.0 6.0 0.00 0.00 0.00 84 1023.0
20260509141626 44 167 1.0 5.0 0.00 0.00 0.00 90 1023.0
20260509140626 42 0.0 0.0 0.00 0.00 0.00 92 1023.1
20260509135626 40 171 0.0 2.0 0.00 0.00 0.00 96 1023.0
20260509134626 39 224 0.0 1.0 0.00 0.00 0.00 95 1023.1
20260509133626 39 0.0 0.0 0.00 0.00 0.00 95 1023.0
20260509132626 39 0.0 0.0 0.00 0.00 0.00 94 1022.9
20260509131627 39 0.0 0.0 0.00 0.00 0.00 95 1022.8
20260509130646 38 0.0 0.0 0.00 0.00 0.00 95 1022.7
20260509125627 38 0.0 1.0 0.00 0.00 0.00 94 1022.6
20260509124626 39 0.0 0.0 0.00 0.00 0.00 93 1022.4
20260509123627 39 154 2.0 3.0 0.00 0.00 0.00 93 1022.4
20260509122646 39 199 1.0 3.0 0.00 0.00 0.00 93 1022.5
20260509121626 40 0.0 0.0 0.00 0.00 0.00 91 1022.7
20260509120628 40 149 0.0 1.0 0.00 0.00 0.00 91 1022.9
20260509115626 40 225 0.0 2.0 0.00 0.00 0.00 91 1023.0
20260509114626 39 161 1.0 3.0 0.00 0.00 0.00 94 1023.0
20260509113626 38 204 0.0 2.0 0.00 0.00 0.00 98 1023.0
20260509112626 37 0.0 0.0 0.00 0.00 0.00 100 1023.0
20260509111626 37 0.0 0.0 0.00 0.00 0.00 100 1023.0
20260509110627 37 0.0 0.0 0.00 0.00 0.00 98 1022.9
20260509105626 38 0.0 0.0 0.00 0.00 0.00 97 1022.9
20260509104627 38 0.0 0.0 0.00 0.00 0.00 98 1022.9
20260509103627 39 0.0 0.0 0.00 0.00 0.00 96 1022.9
20260509102647 39 0.0 0.0 0.00 0.00 0.00 95 1023.0
20260509101626 40 0.0 0.0 0.00 0.00 0.00 96 1023.1
20260509100626 39 0.0 0.0 0.00 0.00 0.00 96 1023.2
20260509095627 39 0.0 0.0 0.00 0.00 0.00 93 1023.2
20260509094626 40 0.0 0.0 0.00 0.00 0.00 91 1023.1
20260509093626 41 0.0 0.0 0.00 0.00 0.00 89 1023.2
20260509092626 42 0.0 0.0 0.00 0.00 0.00 88 1023.2
20260509091626 43 0.0 0.0 0.00 0.00 0.00 86 1023.2
20260509090627 42 0.0 0.0 0.00 0.00 0.00 88 1023.3
20260509085626 44 0.0 0.0 0.00 0.00 0.00 85 1023.3
20260509084626 44 0.0 0.0 0.00 0.00 0.00 84 1023.3
20260509083626 44 0.0 0.0 0.00 0.00 0.00 86 1023.3
20260509082646 44 0.0 0.0 0.00 0.00 0.00 85 1023.4
20260509081627 45 0.0 0.0 0.00 0.00 0.00 82 1023.2
20260509080629 46 0.0 0.0 0.00 0.00 0.00 81 1023.2
20260509075627 46 0.0 0.0 0.00 0.00 0.00 81 1023.1
20260509074626 47 0.0 0.0 0.00 0.00 0.00 79 1023.1
20260509073626 48 0.0 0.0 0.00 0.00 0.00 77 1023.0
20260509072626 50 0.0 1.0 0.00 0.00 0.00 74 1022.9
20260509071646 49 239 1.0 5.0 0.00 0.00 0.00 75 1022.8
20260509070647 50 0.0 0.0 0.00 0.00 0.00 75 1022.8
20260509065627 51 0.0 0.0 0.00 0.00 0.00 71 1022.6
20260509064626 52 343 1.0 3.0 0.00 0.00 0.00 69 1022.5
20260509063626 51 0.0 1.0 0.00 0.00 0.00 70 1022.6
20260509062647 51 0.0 0.0 0.00 0.00 0.00 72 1022.6
20260509061626 53 0.0 1.0 0.00 0.00 0.00 67 1022.5
20260509060626 54 176 0.0 2.0 0.00 0.00 0.00 65 1022.4
20260509055626 54 12 1.0 2.0 0.00 0.00 0.00 64 1022.4
20260509054647 53 0.0 0.0 0.00 0.00 0.00 67 1022.4
20260509053626 55 0.0 0.0 0.00 0.00 0.00 64 1022.3
20260509052627 55 0.0 0.0 0.00 0.00 0.00 63 1022.2
20260509051646 57 0.0 0.0 0.00 0.00 0.00 62 1022.3
20260509050706 58 21 2.0 3.0 0.00 0.00 0.00 61 1022.2
20260509045627 59 11 3.0 5.0 0.00 0.00 0.00 60 1022.1
20260509044626 59 342 2.0 7.0 0.00 0.00 0.00 60 1022.0
20260509043626 59 246 1.0 3.0 0.00 0.00 0.00 60 1021.9
20260509042626 60 250 3.0 8.0 0.00 0.00 0.00 59 1021.8
20260509041627 60 356 3.0 5.0 0.00 0.00 0.00 57 1021.6
20260509040627 60 29 4.0 9.0 0.00 0.00 0.00 57 1021.6
20260509035626 61 347 3.0 8.0 0.00 0.00 0.00 57 1021.5
20260509034627 61 321 3.0 10.0 0.00 0.00 0.00 56 1021.3
20260509033627 62 124 3.0 8.0 0.00 0.00 0.00 55 1021.2
20260509032646 62 311 4.0 9.0 0.00 0.00 0.00 54 1021.2
20260509031627 62 277 3.0 9.0 0.00 0.00 0.00 54 1021.1